| time (UTC) | temp F | wind direction | speed MPH | gust MPH | rain 1hr in | rain 24hr in | rain mn in | humidity % | barometer mb |
| 20260507225359 | 55 | 237 | 2.0 | 6.0 | 0.00 | 0.00 | 0.00 | 34 | 1009.2 |
| 20260507224855 | 55 | 273 | 2.0 | 6.0 | 0.00 | 0.00 | 0.00 | 33 | 1009.0 |
| 20260507224351 | 55 | 334 | 3.0 | 10.0 | 0.00 | 0.00 | 0.00 | 34 | 1009.0 |
| 20260507223848 | 55 | 263 | 4.0 | 5.0 | 0.00 | 0.00 | 0.00 | 33 | 1009.1 |
| 20260507223344 | 55 | 311 | 3.0 | 5.0 | 0.00 | 0.00 | 0.00 | 33 | 1009.3 |
| 20260507222841 | 55 | 340 | 4.0 | 8.0 | 0.00 | 0.00 | 0.00 | 33 | 1009.2 |
| 20260507222337 | 55 | 211 | 1.0 | 8.0 | 0.00 | 0.00 | 0.00 | 35 | 1009.2 |
| 20260507221835 | 54 | 251 | 5.0 | 7.0 | 0.00 | 0.00 | 0.00 | 34 | 1009.2 |
| 20260507221331 | 54 | 249 | 5.0 | 9.0 | 0.00 | 0.00 | 0.00 | 34 | 1009.4 |
| 20260507220827 | 55 | 262 | 3.0 | 6.0 | 0.00 | 0.00 | 0.00 | 33 | 1009.5 |
| 20260507220326 | 55 | 314 | 4.0 | 7.0 | 0.00 | 0.00 | 0.00 | 33 | 1009.7 |
| 20260507215822 | 55 | 216 | 4.0 | 8.0 | 0.00 | 0.00 | 0.00 | 32 | 1009.5 |
| 20260507215319 | 54 | 77 | 3.0 | 7.0 | 0.00 | 0.00 | 0.00 | 33 | 1009.5 |
| 20260507214816 | 54 | 280 | 4.0 | 9.0 | 0.00 | 0.00 | 0.00 | 32 | 1009.7 |
| 20260507214314 | 54 | 217 | 1.0 | 6.0 | 0.00 | 0.00 | 0.00 | 33 | 1009.6 |
| 20260507213808 | 54 | 284 | 5.0 | 7.0 | 0.00 | 0.00 | 0.00 | 33 | 1009.7 |
| 20260507213306 | 54 | 28 | 3.0 | 8.0 | 0.00 | 0.00 | 0.00 | 32 | 1009.8 |
| 20260507212802 | 55 | 296 | 5.0 | 9.0 | 0.00 | 0.00 | 0.00 | 31 | 1009.8 |
| 20260507212258 | 55 | 213 | 2.0 | 9.0 | 0.00 | 0.00 | 0.00 | 30 | 1009.8 |
| 20260507211755 | 54 | 267 | 5.0 | 6.0 | 0.00 | 0.00 | 0.00 | 30 | 1009.9 |
| 20260507211251 | 54 | 322 | 3.0 | 6.0 | 0.00 | 0.00 | 0.00 | 28 | 1009.9 |
| 20260507210748 | 54 | 327 | 4.0 | 7.0 | 0.00 | 0.00 | 0.00 | 28 | 1010.0 |
| 20260507210245 | 53 | 310 | 2.0 | 7.0 | 0.00 | 0.00 | 0.00 | 28 | 1010.0 |
| 20260507205742 | 53 | 264 | 2.0 | 13.0 | 0.00 | 0.00 | 0.00 | 26 | 1010.0 |
| 20260507205239 | 54 | 303 | 3.0 | 7.0 | 0.00 | 0.00 | 0.00 | 28 | 1010.2 |
| 20260507204735 | 54 | 230 | 5.0 | 7.0 | 0.00 | 0.00 | 0.00 | 29 | 1010.2 |
| 20260507204233 | 53 | 117 | 3.0 | 9.0 | 0.00 | 0.00 | 0.00 | 30 | 1010.1 |
| 20260507203730 | 54 | 230 | 3.0 | 5.0 | 0.00 | 0.00 | 0.00 | 29 | 1010.1 |
| 20260507203227 | 53 | 332 | 2.0 | 7.0 | 0.00 | 0.00 | 0.00 | 32 | 1010.0 |
| 20260507202724 | 54 | 321 | 3.0 | 9.0 | 0.00 | 0.00 | 0.00 | 33 | 1010.1 |
| 20260507202220 | 53 | 309 | 6.0 | 10.0 | 0.00 | 0.00 | 0.00 | 32 | 1010.3 |
| 20260507201714 | 54 | 265 | 3.0 | 6.0 | 0.00 | 0.00 | 0.00 | 32 | 1010.4 |
| 20260507201212 | 54 | 353 | 2.0 | 5.0 | 0.00 | 0.00 | 0.00 | 34 | 1010.4 |
| 20260507200708 | 52 | 144 | 4.0 | 7.0 | 0.00 | 0.00 | 0.00 | 32 | 1010.2 |
| 20260507200204 | 52 | 215 | 1.0 | 6.0 | 0.00 | 0.00 | 0.00 | 33 | 1010.4 |
| 20260507195701 | 53 | 300 | 2.0 | 8.0 | 0.00 | 0.00 | 0.00 | 33 | 1010.4 |
| 20260507195158 | 53 | 354 | 4.0 | 8.0 | 0.00 | 0.00 | 0.00 | 35 | 1010.4 |
| 20260507194655 | 52 | 281 | 1.0 | 2.0 | 0.00 | 0.00 | 0.00 | 34 | 1010.4 |
| 20260507194150 | 51 | 202 | 4.0 | 5.0 | 0.00 | 0.00 | 0.00 | 35 | 1010.4 |
| 20260507193647 | 52 | 251 | 2.0 | 6.0 | 0.00 | 0.00 | 0.00 | 35 | 1010.7 |
| 20260507193145 | 54 | 289 | 2.0 | 8.0 | 0.00 | 0.00 | 0.00 | 35 | 1010.5 |
| 20260507192640 | 53 | 258 | 3.0 | 6.0 | 0.00 | 0.00 | 0.00 | 34 | 1010.8 |
| 20260507192138 | 53 | 249 | 2.0 | 3.0 | 0.00 | 0.00 | 0.00 | 33 | 1010.4 |
| 20260507191633 | 54 | 232 | 1.0 | 3.0 | 0.00 | 0.00 | 0.00 | 34 | 1010.4 |
| 20260507191130 | 51 | 303 | 2.0 | 3.0 | 0.00 | 0.00 | 0.00 | 34 | 1010.6 |
| 20260507190628 | 52 | 297 | 7.0 | 11.0 | 0.00 | 0.00 | 0.00 | 34 | 1010.8 |
| 20260507190127 | 52 | 220 | 1.0 | 8.0 | 0.00 | 0.00 | 0.00 | 35 | 1010.8 |
| 20260507185625 | 52 | 225 | 1.0 | 5.0 | 0.00 | 0.00 | 0.00 | 35 | 1010.6 |
| 20260507185120 | 50 | 337 | 3.0 | 3.0 | 0.00 | 0.00 | 0.00 | 36 | 1010.8 |
| 20260507184619 | 51 | 300 | 5.0 | 9.0 | 0.00 | 0.00 | 0.00 | 36 | 1010.9 |
| 20260507184116 | 51 | 300 | 3.0 | 6.0 | 0.00 | 0.00 | 0.00 | 36 | 1011.0 |
| 20260507183612 | 51 | 307 | 4.0 | 8.0 | 0.00 | 0.00 | 0.00 | 37 | 1011.0 |
| 20260507183109 | 50 | 283 | 4.0 | 6.0 | 0.00 | 0.00 | 0.00 | 39 | 1011.0 |
| 20260507182605 | 50 | 144 | 3.0 | 8.0 | 0.00 | 0.00 | 0.00 | 37 | 1011.3 |
| 20260507182102 | 50 | 314 | 5.0 | 7.0 | 0.00 | 0.00 | 0.00 | 39 | 1011.2 |
| 20260507181559 | 50 | 293 | 3.0 | 6.0 | 0.00 | 0.00 | 0.00 | 37 | 1011.2 |
| 20260507181055 | 50 | 187 | 2.0 | 3.0 | 0.00 | 0.00 | 0.00 | 38 | 1011.2 |
| 20260507180551 | 50 | 277 | 2.0 | 2.0 | 0.00 | 0.00 | 0.00 | 38 | 1011.4 |
| 20260507180048 | 50 | 206 | 1.0 | 7.0 | 0.00 | 0.00 | 0.00 | 39 | 1011.6 |
| 20260507175544 | 49 | 130 | 1.0 | 1.0 | 0.00 | 0.00 | 0.00 | 39 | 1011.4 |
| 20260507175042 | 48 | 321 | 2.0 | 3.0 | 0.00 | 0.00 | 0.00 | 40 | 1012.0 |
| 20260507174539 | 49 | 77 | 2.0 | 6.0 | 0.00 | 0.00 | 0.00 | 40 | 1011.8 |
| 20260507174037 | 48 | 221 | 1.0 | 5.0 | 0.00 | 0.00 | 0.00 | 41 | 1012.1 |
| 20260507173533 | 48 | 281 | 3.0 | 3.0 | 0.00 | 0.00 | 0.00 | 40 | 1011.9 |
| 20260507173031 | 47 | 192 | 1.0 | 2.0 | 0.00 | 0.00 | 0.00 | 41 | 1012.0 |
| 20260507172527 | 47 | 214 | 3.0 | 6.0 | 0.00 | 0.00 | 0.00 | 40 | 1012.1 |
| 20260507172024 | 48 | 223 | 1.0 | 3.0 | 0.00 | 0.00 | 0.00 | 40 | 1012.0 |
| 20260507171519 | 47 | 30 | 2.0 | 5.0 | 0.00 | 0.00 | 0.00 | 40 | 1012.2 |
| 20260507171017 | 47 | 11 | 1.0 | 2.0 | 0.00 | 0.00 | 0.00 | 41 | 1012.0 |
| 20260507170513 | 47 | 291 | 1.0 | 3.0 | 0.00 | 0.00 | 0.00 | 40 | 1012.3 |
| 20260507170010 | 47 | 345 | 2.0 | 2.0 | 0.00 | 0.00 | 0.00 | 42 | 1012.2 |
| 20260507165506 | 46 | 213 | 0.0 | 2.0 | 0.00 | 0.00 | 0.00 | 41 | 1012.1 |
| 20260507165003 | 46 | 310 | 2.0 | 5.0 | 0.00 | 0.00 | 0.00 | 41 | 1012.4 |
| 20260507164459 | 46 | 234 | 0.0 | 3.0 | 0.00 | 0.00 | 0.00 | 41 | 1012.4 |
| 20260507163955 | 46 | 225 | 0.0 | 2.0 | 0.00 | 0.00 | 0.00 | 43 | 1012.5 |
| 20260507163453 | 44 | 222 | 0.0 | 2.0 | 0.00 | 0.00 | 0.00 | 43 | 1012.4 |
| 20260507162950 | 45 | 130 | 2.0 | 3.0 | 0.00 | 0.00 | 0.00 | 43 | 1012.5 |
| 20260507162445 | 45 | 196 | 1.0 | 5.0 | 0.00 | 0.00 | 0.00 | 41 | 1012.5 |
| 20260507161943 | 44 | 196 | 0.0 | 2.0 | 0.00 | 0.00 | 0.00 | 42 | 1012.6 |
| 20260507161439 | 44 | 71 | 0.0 | 3.0 | 0.00 | 0.00 | 0.00 | 43 | 1012.7 |
| 20260507160936 | 44 | 89 | 1.0 | 2.0 | 0.00 | 0.00 | 0.00 | 44 | 1012.7 |
| 20260507160432 | 44 | 212 | 1.0 | 2.0 | 0.00 | 0.00 | 0.00 | 44 | 1012.7 |
| 20260507155927 | 43 | 282 | 1.0 | 2.0 | 0.00 | 0.00 | 0.00 | 45 | 1012.8 |
| 20260507155424 | 43 | 223 | 1.0 | 2.0 | 0.00 | 0.00 | 0.00 | 45 | 1012.9 |
| 20260507154921 | 44 | 317 | 1.0 | 6.0 | 0.00 | 0.00 | 0.00 | 45 | 1012.9 |
| 20260507154417 | 42 | 210 | 0.0 | 2.0 | 0.00 | 0.00 | 0.00 | 47 | 1013.0 |
| 20260507153915 | 41 | 0 | 1.0 | 2.0 | 0.00 | 0.00 | 0.00 | 48 | 1013.0 |
| 20260507153411 | 41 | 199 | 0.0 | 2.0 | 0.00 | 0.00 | 0.00 | 49 | 1012.8 |
| 20260507152908 | 41 | 108 | 2.0 | 3.0 | 0.00 | 0.00 | 0.00 | 49 | 1012.8 |
| 20260507152404 | 40 | 199 | 0.0 | 1.0 | 0.00 | 0.00 | 0.00 | 49 | 1013.1 |
| 20260507151900 | 39 | 195 | 2.0 | 2.0 | 0.00 | 0.00 | 0.00 | 51 | 1013.1 |
| 20260507151356 | 40 | 230 | 1.0 | 2.0 | 0.00 | 0.00 | 0.00 | 50 | 1013.2 |
| 20260507150854 | 40 | 241 | 1.0 | 2.0 | 0.00 | 0.00 | 0.00 | 50 | 1013.1 |
| 20260507150350 | 39 | 231 | 1.0 | 2.0 | 0.00 | 0.00 | 0.00 | 51 | 1013.2 |
| 20260507145846 | 39 | 339 | 1.0 | 2.0 | 0.00 | 0.00 | 0.00 | 51 | 1013.2 |
| 20260507145343 | 39 | 192 | 1.0 | 2.0 | 0.00 | 0.00 | 0.00 | 51 | 1013.2 |
| 20260507144840 | 39 | 167 | 1.0 | 3.0 | 0.00 | 0.00 | 0.00 | 51 | 1013.3 |
| 20260507144337 | 40 | 49 | 2.0 | 2.0 | 0.00 | 0.00 | 0.00 | 52 | 1013.0 |
| 20260507143834 | 39 | 168 | 0.0 | 1.0 | 0.00 | 0.00 | 0.00 | 53 | 1013.4 |
| 20260507143331 | 38 | 39 | 1.0 | 3.0 | 0.00 | 0.00 | 0.00 | 54 | 1013.5 |
| 20260507142827 | 38 | 216 | 1.0 | 2.0 | 0.00 | 0.00 | 0.00 | 53 | 1013.5 |
| 20260507142323 | 37 | 211 | 0.0 | 1.0 | 0.00 | 0.00 | 0.00 | 55 | 1013.5 |
| 20260507141820 | 37 | 179 | 1.0 | 1.0 | 0.00 | 0.00 | 0.00 | 54 | 1013.4 |
| 20260507141317 | 37 | 206 | 0.0 | 2.0 | 0.00 | 0.00 | 0.00 | 56 | 1013.5 |
| 20260507140813 | 36 | 224 | 0.0 | 1.0 | 0.00 | 0.00 | 0.00 | 57 | 1013.3 |
| 20260507140310 | 36 | 212 | 0.0 | 1.0 | 0.00 | 0.00 | 0.00 | 57 | 1013.5 |
| 20260507135808 | 36 | 340 | 2.0 | 2.0 | 0.00 | 0.00 | 0.00 | 57 | 1013.4 |
| 20260507135306 | 36 | 206 | 0.0 | 1.0 | 0.00 | 0.00 | 0.00 | 57 | 1013.4 |
| 20260507134802 | 36 | 210 | 0.0 | 1.0 | 0.00 | 0.00 | 0.00 | 59 | 1013.4 |
| 20260507134258 | 35 | 147 | 0.0 | 1.0 | 0.00 | 0.00 | 0.00 | 60 | 1013.4 |
| 20260507133754 | 35 | 217 | 0.0 | 1.0 | 0.00 | 0.00 | 0.00 | 60 | 1013.1 |
| 20260507133250 | 34 | 201 | 0.0 | 1.0 | 0.00 | 0.00 | 0.00 | 61 | 1013.4 |
| 20260507132748 | 34 | 197 | 0.0 | 1.0 | 0.00 | 0.00 | 0.00 | 62 | 1013.5 |
| 20260507132245 | 34 | 132 | 1.0 | 1.0 | 0.00 | 0.00 | 0.00 | 62 | 1013.4 |
| 20260507131742 | 34 | 176 | 0.0 | 1.0 | 0.00 | 0.00 | 0.00 | 62 | 1013.3 |
| 20260507131239 | 33 | 197 | 0.0 | 1.0 | 0.00 | 0.00 | 0.00 | 63 | 1013.5 |
| 20260507130735 | 33 | 235 | 0.0 | 1.0 | 0.00 | 0.00 | 0.00 | 65 | 1013.3 |
| 20260507130233 | 33 | 208 | 0.0 | 1.0 | 0.00 | 0.00 | 0.00 | 65 | 1013.5 |
| 20260507125732 | 33 | 319 | 1.0 | 2.0 | 0.00 | 0.00 | 0.00 | 65 | 1013.3 |
| 20260507125229 | 33 | 197 | 0.0 | 2.0 | 0.00 | 0.00 | 0.00 | 67 | 1013.6 |
| 20260507124725 | 32 | 232 | 0.0 | 0.0 | 0.00 | 0.00 | 0.00 | 68 | 1013.4 |
| 20260507124222 | 31 | 4 | 1.0 | 2.0 | 0.00 | 0.00 | 0.00 | 70 | 1013.5 |
| 20260507123721 | 30 | 183 | 0.0 | 0.0 | 0.00 | 0.00 | 0.00 | 71 | 1013.4 |
| 20260507123218 | 30 | 214 | 0.0 | 0.0 | 0.00 | 0.00 | 0.00 | 71 | 1013.4 |
| 20260507122713 | 30 | 228 | 0.0 | 0.0 | 0.00 | 0.00 | 0.00 | 71 | 1013.5 |
| 20260507122209 | 30 | 214 | 0.0 | 0.0 | 0.00 | 0.00 | 0.00 | 71 | 1013.5 |
| 20260507121705 | 30 | 214 | 0.0 | 0.0 | 0.00 | 0.00 | 0.00 | 71 | 1013.1 |
| 20260507121201 | 30 | 214 | 0.0 | 0.0 | 0.00 | 0.00 | 0.00 | 71 | 1013.0 |
| 20260507120657 | 30 | 214 | 0.0 | 1.0 | 0.00 | 0.00 | 0.00 | 72 | 1013.2 |
| 20260507120154 | 30 | 220 | 0.0 | 0.0 | 0.00 | 0.00 | 0.00 | 73 | 1013.1 |
| 20260507115650 | 29 | 210 | 0.0 | 0.0 | 0.00 | 0.00 | 0.00 | 75 | 1013.1 |
| 20260507115146 | 29 | 210 | 0.0 | 0.0 | 0.00 | 0.00 | 0.00 | 76 | 1013.3 |
| 20260507114643 | 29 | 208 | 0.0 | 0.0 | 0.00 | 0.00 | 0.00 | 77 | 1013.1 |
| 20260507114140 | 28 | 223 | 0.0 | 1.0 | 0.00 | 0.00 | 0.00 | 77 | 1013.2 |
| 20260507113637 | 28 | 33 | 1.0 | 2.0 | 0.00 | 0.00 | 0.00 | 77 | 1013.2 |
| 20260507113134 | 27 | 191 | 0.0 | 0.0 | 0.00 | 0.00 | 0.00 | 78 | 1013.0 |
| 20260507112632 | 27 | 191 | 0.0 | 0.0 | 0.00 | 0.00 | 0.00 | 78 | 1012.9 |
| 20260507112128 | 27 | 191 | 0.0 | 0.0 | 0.00 | 0.00 | 0.00 | 78 | 1012.9 |
| 20260507111625 | 27 | 191 | 0.0 | 0.0 | 0.00 | 0.00 | 0.00 | 77 | 1012.8 |
| 20260507111122 | 27 | 191 | 0.0 | 0.0 | 0.00 | 0.00 | 0.00 | 77 | 1012.8 |
| 20260507110618 | 27 | 191 | 0.0 | 0.0 | 0.00 | 0.00 | 0.00 | 77 | 1012.7 |
| 20260507110115 | 27 | 191 | 0.0 | 0.0 | 0.00 | 0.00 | 0.00 | 77 | 1012.8 |
| 20260507105612 | 26 | 191 | 0.0 | 0.0 | 0.00 | 0.00 | 0.00 | 77 | 1013.0 |
| 20260507105108 | 26 | 191 | 0.0 | 0.0 | 0.00 | 0.00 | 0.00 | 78 | 1013.1 |
| 20260507104606 | 26 | 191 | 0.0 | 0.0 | 0.00 | 0.00 | 0.00 | 78 | 1013.0 |
| 20260507104102 | 26 | 191 | 0.0 | 0.0 | 0.00 | 0.00 | 0.00 | 78 | 1012.9 |
| 20260507103558 | 25 | 191 | 0.0 | 0.0 | 0.00 | 0.00 | 0.00 | 79 | 1013.2 |
| 20260507103055 | 25 | 191 | 0.0 | 0.0 | 0.00 | 0.00 | 0.00 | 79 | 1012.9 |
| 20260507102551 | 25 | 191 | 0.0 | 0.0 | 0.00 | 0.00 | 0.00 | 79 | 1013.1 |
| 20260507102047 | 25 | 191 | 0.0 | 0.0 | 0.00 | 0.00 | 0.00 | 79 | 1012.9 |
| 20260507101543 | 25 | 191 | 0.0 | 0.0 | 0.00 | 0.00 | 0.00 | 78 | 1013.0 |
| 20260507101039 | 25 | 191 | 0.0 | 0.0 | 0.00 | 0.00 | 0.00 | 78 | 1013.1 |
| 20260507100537 | 24 | 191 | 0.0 | 0.0 | 0.00 | 0.00 | 0.00 | 78 | 1013.0 |
| 20260507100035 | 24 | 191 | 0.0 | 0.0 | 0.00 | 0.00 | 0.00 | 77 | 1013.1 |
| 20260507095532 | 24 | 191 | 0.0 | 0.0 | 0.00 | 0.00 | 0.00 | 77 | 1013.0 |
| 20260507095029 | 24 | 191 | 0.0 | 0.0 | 0.00 | 0.00 | 0.00 | 76 | 1013.0 |
| 20260507094525 | 24 | 191 | 0.0 | 0.0 | 0.00 | 0.00 | 0.00 | 76 | 1013.2 |
| 20260507094022 | 24 | 191 | 0.0 | 0.0 | 0.00 | 0.00 | 0.00 | 76 | 1013.1 |
| 20260507093520 | 24 | 191 | 0.0 | 0.0 | 0.00 | 0.00 | 0.00 | 76 | 1013.2 |
| 20260507093018 | 24 | 191 | 0.0 | 0.0 | 0.00 | 0.00 | 0.00 | 75 | 1013.2 |
| 20260507092514 | 24 | 191 | 0.0 | 0.0 | 0.00 | 0.00 | 0.00 | 75 | 1013.1 |
| 20260507092011 | 24 | 191 | 0.0 | 0.0 | 0.00 | 0.00 | 0.00 | 75 | 1013.2 |
| 20260507091508 | 24 | 191 | 0.0 | 0.0 | 0.00 | 0.00 | 0.00 | 74 | 1013.3 |
| 20260507091004 | 25 | 191 | 0.0 | 0.0 | 0.00 | 0.00 | 0.00 | 74 | 1013.3 |
| 20260507090459 | 25 | 191 | 0.0 | 0.0 | 0.00 | 0.00 | 0.00 | 73 | 1013.2 |
| 20260507085956 | 25 | 191 | 0.0 | 0.0 | 0.00 | 0.00 | 0.00 | 73 | 1013.5 |
| 20260507085454 | 25 | 191 | 0.0 | 0.0 | 0.00 | 0.00 | 0.00 | 72 | 1013.1 |
| 20260507084950 | 26 | 191 | 0.0 | 0.0 | 0.00 | 0.00 | 0.00 | 72 | 1013.1 |
| 20260507084447 | 26 | 191 | 0.0 | 0.0 | 0.00 | 0.00 | 0.00 | 71 | 1013.2 |
| 20260507083944 | 27 | 191 | 0.0 | 0.0 | 0.00 | 0.00 | 0.00 | 71 | 1013.2 |
| 20260507083440 | 27 | 191 | 0.0 | 0.0 | 0.00 | 0.00 | 0.00 | 71 | 1013.5 |
| 20260507082937 | 27 | 188 | 1.0 | 1.0 | 0.00 | 0.00 | 0.00 | 71 | 1013.1 |
| 20260507082433 | 27 | 192 | 0.0 | 1.0 | 0.00 | 0.00 | 0.00 | 70 | 1013.2 |
| 20260507081930 | 27 | 192 | 0.0 | 1.0 | 0.00 | 0.00 | 0.00 | 70 | 1013.5 |
| 20260507081426 | 27 | 192 | 0.0 | 0.0 | 0.00 | 0.00 | 0.00 | 70 | 1013.4 |
| 20260507080923 | 27 | 192 | 0.0 | 0.0 | 0.00 | 0.00 | 0.00 | 69 | 1013.2 |
| 20260507080419 | 27 | 192 | 0.0 | 1.0 | 0.00 | 0.00 | 0.00 | 69 | 1013.1 |
| 20260507075914 | 28 | 192 | 0.0 | 1.0 | 0.00 | 0.00 | 0.00 | 69 | 1013.3 |
| 20260507075411 | 28 | 196 | 0.0 | 1.0 | 0.00 | 0.00 | 0.00 | 69 | 1013.3 |
| 20260507074908 | 28 | 187 | 1.0 | 1.0 | 0.00 | 0.00 | 0.00 | 68 | 1013.4 |
| 20260507074404 | 28 | 182 | 1.0 | 1.0 | 0.00 | 0.00 | 0.00 | 68 | 1013.5 |
| 20260507073902 | 28 | 193 | 0.0 | 1.0 | 0.00 | 0.00 | 0.00 | 67 | 1013.3 |
| 20260507073358 | 28 | 197 | 0.0 | 1.0 | 0.00 | 0.00 | 0.00 | 67 | 1013.4 |
| 20260507072855 | 28 | 194 | 0.0 | 1.0 | 0.00 | 0.00 | 0.00 | 67 | 1013.5 |
| 20260507072353 | 28 | 193 | 1.0 | 2.0 | 0.00 | 0.00 | 0.00 | 66 | 1013.5 |
| 20260507071850 | 28 | 189 | 1.0 | 2.0 | 0.00 | 0.00 | 0.00 | 67 | 1013.7 |
| 20260507071347 | 28 | 189 | 0.0 | 2.0 | 0.00 | 0.00 | 0.00 | 67 | 1013.5 |
| 20260507070843 | 29 | 192 | 1.0 | 1.0 | 0.00 | 0.00 | 0.00 | 66 | 1013.6 |
| 20260507070341 | 29 | 194 | 0.0 | 1.0 | 0.00 | 0.00 | 0.00 | 66 | 1013.8 |
| 20260507065838 | 29 | 190 | 0.0 | 1.0 | 0.00 | 0.00 | 0.00 | 65 | 1013.8 |
| 20260507065334 | 29 | 190 | 1.0 | 2.0 | 0.00 | 0.00 | 0.00 | 65 | 1013.8 |
| 20260507064831 | 29 | 199 | 0.0 | 1.0 | 0.00 | 0.00 | 0.00 | 66 | 1013.8 |
| 20260507064330 | 29 | 183 | 0.0 | 1.0 | 0.00 | 0.00 | 0.00 | 66 | 1013.8 |
| 20260507063827 | 29 | 196 | 0.0 | 1.0 | 0.00 | 0.00 | 0.00 | 65 | 1013.7 |
| 20260507063324 | 29 | 196 | 0.0 | 3.0 | 0.00 | 0.00 | 0.00 | 65 | 1014.0 |
| 20260507062821 | 29 | 179 | 1.0 | 1.0 | 0.00 | 0.00 | 0.00 | 66 | 1013.7 |
| 20260507062318 | 29 | 195 | 0.0 | 1.0 | 0.00 | 0.00 | 0.00 | 65 | 1013.9 |
| 20260507061816 | 29 | 177 | 0.0 | 2.0 | 0.00 | 0.00 | 0.00 | 65 | 1013.7 |
| 20260507061314 | 29 | 185 | 1.0 | 1.0 | 0.00 | 0.00 | 0.00 | 65 | 1013.8 |
| 20260507060812 | 29 | 186 | 0.0 | 1.0 | 0.00 | 0.00 | 0.00 | 65 | 1013.8 |
| 20260507060308 | 30 | 187 | 1.0 | 2.0 | 0.00 | 0.00 | 0.00 | 64 | 1013.8 |
| 20260507055805 | 30 | 176 | 1.0 | 1.0 | 0.00 | 0.00 | 0.00 | 65 | 1013.9 |
| 20260507055300 | 30 | 160 | 1.0 | 2.0 | 0.00 | 0.00 | 0.00 | 65 | 1014.0 |
| 20260507054756 | 30 | 178 | 1.0 | 2.0 | 0.00 | 0.00 | 0.00 | 65 | 1013.9 |
| 20260507054253 | 30 | 158 | 2.0 | 2.0 | 0.00 | 0.00 | 0.00 | 65 | 1013.9 |
| 20260507053750 | 30 | 183 | 1.0 | 2.0 | 0.00 | 0.00 | 0.00 | 65 | 1014.2 |
| 20260507053248 | 30 | 187 | 1.0 | 3.0 | 0.00 | 0.00 | 0.00 | 65 | 1014.1 |
| 20260507052747 | 30 | 192 | 1.0 | 2.0 | 0.00 | 0.00 | 0.00 | 65 | 1014.0 |
| 20260507052243 | 30 | 168 | 1.0 | 2.0 | 0.00 | 0.00 | 0.00 | 65 | 1014.1 |
| 20260507051741 | 30 | 162 | 0.0 | 2.0 | 0.00 | 0.00 | 0.00 | 65 | 1013.9 |
| 20260507051237 | 30 | 185 | 1.0 | 2.0 | 0.00 | 0.00 | 0.00 | 65 | 1014.0 |
| 20260507050734 | 30 | 213 | 2.0 | 2.0 | 0.00 | 0.00 | 0.00 | 65 | 1014.1 |
| 20260507050231 | 30 | 167 | 2.0 | 3.0 | 0.00 | 0.00 | 0.00 | 64 | 1014.1 |
| 20260507045728 | 31 | 194 | 0.0 | 1.0 | 0.00 | 0.00 | 0.00 | 64 | 1014.0 |
| 20260507045224 | 31 | 169 | 1.0 | 2.0 | 0.00 | 0.00 | 0.00 | 64 | 1014.2 |
| 20260507044722 | 31 | 184 | 0.0 | 2.0 | 0.00 | 0.00 | 0.00 | 64 | 1014.2 |
| 20260507044218 | 30 | 185 | 0.0 | 1.0 | 0.00 | 0.00 | 0.00 | 65 | 1014.3 |
| 20260507043714 | 31 | 194 | 0.0 | 0.0 | 0.00 | 0.00 | 0.00 | 64 | 1014.2 |
| 20260507043211 | 31 | 193 | 0.0 | 0.0 | 0.00 | 0.00 | 0.00 | 64 | 1014.1 |
| 20260507042708 | 31 | 46 | 1.0 | 2.0 | 0.00 | 0.00 | 0.00 | 64 | 1014.4 |
| 20260507042202 | 31 | 182 | 0.0 | 1.0 | 0.00 | 0.00 | 0.00 | 64 | 1014.3 |
| 20260507041700 | 31 | 153 | 2.0 | 3.0 | 0.00 | 0.00 | 0.00 | 64 | 1014.4 |
| 20260507041156 | 32 | 186 | 1.0 | 2.0 | 0.00 | 0.00 | 0.00 | 63 | 1014.4 |
| 20260507040653 | 32 | 104 | 1.0 | 2.0 | 0.00 | 0.00 | 0.00 | 63 | 1014.2 |
| 20260507040150 | 32 | 149 | 0.0 | 3.0 | 0.00 | 0.00 | 0.00 | 63 | 1014.5 |
| 20260507035646 | 32 | 195 | 0.0 | 1.0 | 0.00 | 0.00 | 0.00 | 63 | 1014.5 |
| 20260507035142 | 32 | 114 | 0.0 | 3.0 | 0.00 | 0.00 | 0.00 | 63 | 1014.6 |
| 20260507034639 | 32 | 97 | 2.0 | 3.0 | 0.00 | 0.00 | 0.00 | 62 | 1014.4 |
| 20260507034136 | 32 | 185 | 0.0 | 1.0 | 0.00 | 0.00 | 0.00 | 62 | 1014.6 |
| 20260507033635 | 32 | 200 | 0.0 | 2.0 | 0.00 | 0.00 | 0.00 | 62 | 1014.7 |
| 20260507033131 | 33 | 135 | 1.0 | 3.0 | 0.00 | 0.00 | 0.00 | 61 | 1014.7 |
| 20260507032629 | 33 | 116 | 2.0 | 5.0 | 0.00 | 0.00 | 0.00 | 61 | 1014.7 |
| 20260507032125 | 33 | 113 | 1.0 | 3.0 | 0.00 | 0.00 | 0.00 | 61 | 1014.8 |
| 20260507031622 | 33 | 181 | 2.0 | 3.0 | 0.00 | 0.00 | 0.00 | 60 | 1014.6 |
| 20260507031118 | 34 | 205 | 1.0 | 5.0 | 0.00 | 0.00 | 0.00 | 59 | 1014.6 |
| 20260507030615 | 34 | 112 | 2.0 | 5.0 | 0.00 | 0.00 | 0.00 | 59 | 1014.6 |
| 20260507030113 | 34 | 163 | 1.0 | 2.0 | 0.00 | 0.00 | 0.00 | 60 | 1014.4 |
| 20260507025610 | 34 | 86 | 2.0 | 3.0 | 0.00 | 0.00 | 0.00 | 59 | 1014.7 |
| 20260507025107 | 34 | 79 | 2.0 | 3.0 | 0.00 | 0.00 | 0.00 | 58 | 1014.5 |
| 20260507024605 | 34 | 194 | 2.0 | 3.0 | 0.00 | 0.00 | 0.00 | 58 | 1014.7 |
| 20260507024102 | 35 | 136 | 1.0 | 2.0 | 0.00 | 0.00 | 0.00 | 59 | 1014.6 |
| 20260507023557 | 35 | 177 | 2.0 | 3.0 | 0.00 | 0.00 | 0.00 | 58 | 1014.7 |
| 20260507023055 | 35 | 109 | 1.0 | 5.0 | 0.00 | 0.00 | 0.00 | 58 | 1014.6 |
| 20260507022551 | 35 | 128 | 2.0 | 3.0 | 0.00 | 0.00 | 0.00 | 58 | 1014.6 |
| 20260507022046 | 35 | 177 | 0.0 | 5.0 | 0.00 | 0.00 | 0.00 | 57 | 1014.6 |
| 20260507021543 | 35 | 159 | 2.0 | 3.0 | 0.00 | 0.00 | 0.00 | 57 | 1014.7 |
| 20260507021039 | 36 | 111 | 1.0 | 5.0 | 0.00 | 0.00 | 0.00 | 57 | 1014.7 |
| 20260507020538 | 36 | 141 | 2.0 | 3.0 | 0.00 | 0.00 | 0.00 | 58 | 1014.5 |
| 20260507020034 | 36 | 66 | 2.0 | 3.0 | 0.00 | 0.00 | 0.00 | 58 | 1014.6 |
| 20260507015532 | 36 | 124 | 1.0 | 6.0 | 0.00 | 0.00 | 0.00 | 57 | 1014.6 |
| 20260507015029 | 37 | 154 | 3.0 | 7.0 | 0.00 | 0.00 | 0.00 | 57 | 1014.5 |
| 20260507014526 | 37 | 198 | 2.0 | 5.0 | 0.00 | 0.00 | 0.00 | 57 | 1014.3 |
| 20260507014021 | 37 | 147 | 0.0 | 2.0 | 0.00 | 0.00 | 0.00 | 57 | 1014.3 |
| 20260507013518 | 38 | 97 | 3.0 | 6.0 | 0.00 | 0.00 | 0.00 | 56 | 1014.5 |
| 20260507013016 | 38 | 116 | 2.0 | 3.0 | 0.00 | 0.00 | 0.00 | 56 | 1014.5 |
| 20260507012513 | 39 | 147 | 1.0 | 2.0 | 0.00 | 0.00 | 0.00 | 56 | 1014.3 |
| 20260507012009 | 39 | 77 | 2.0 | 3.0 | 0.00 | 0.00 | 0.00 | 56 | 1014.5 |
| 20260507011506 | 39 | 196 | 2.0 | 5.0 | 0.00 | 0.00 | 0.00 | 55 | 1014.2 |
| 20260507011002 | 39 | 354 | 2.0 | 5.0 | 0.00 | 0.00 | 0.00 | 54 | 1014.3 |
| 20260507010456 | 39 | 147 | 2.0 | 6.0 | 0.00 | 0.00 | 0.00 | 54 | 1014.4 |
| 20260507005954 | 40 | 131 | 4.0 | 5.0 | 0.00 | 0.00 | 0.00 | 54 | 1014.3 |
| 20260507005451 | 41 | 80 | 2.0 | 7.0 | 0.00 | 0.00 | 0.00 | 52 | 1014.2 |
| 20260507004947 | 42 | 206 | 1.0 | 2.0 | 0.00 | 0.00 | 0.00 | 50 | 1014.3 |
| 20260507004444 | 42 | 227 | 1.0 | 3.0 | 0.00 | 0.00 | 0.00 | 50 | 1014.1 |
| 20260507003942 | 42 | 174 | 2.0 | 5.0 | 0.00 | 0.00 | 0.00 | 50 | 1014.2 |
| 20260507003437 | 42 | 193 | 2.0 | 3.0 | 0.00 | 0.00 | 0.00 | 48 | 1014.2 |
| 20260507002932 | 42 | 155 | 2.0 | 6.0 | 0.00 | 0.00 | 0.00 | 49 | 1014.1 |
| 20260507002428 | 43 | 211 | 3.0 | 5.0 | 0.00 | 0.00 | 0.00 | 49 | 1014.2 |
| 20260507001926 | 42 | 186 | 4.0 | 8.0 | 0.00 | 0.00 | 0.00 | 50 | 1014.0 |
| 20260507001422 | 43 | 17 | 3.0 | 6.0 | 0.00 | 0.00 | 0.00 | 49 | 1014.3 |
| 20260507000920 | 43 | 110 | 4.0 | 6.0 | 0.00 | 0.00 | 0.00 | 49 | 1014.3 |
| 20260507000415 | 43 | 350 | 3.0 | 7.0 | 0.00 | 0.00 | 0.00 | 49 | 1014.2 |
| 20260506235911 | 45 | 40 | 2.0 | 6.0 | 0.00 | 0.00 | 0.00 | 47 | 1014.3 |
| 20260506235409 | 46 | 337 | 1.0 | 3.0 | 0.00 | 0.00 | 0.00 | 40 | 1014.0 |
| 20260506234904 | 45 | 37 | 2.0 | 6.0 | 0.00 | 0.00 | 0.00 | 40 | 1014.2 |
| 20260506234402 | 45 | 249 | 2.0 | 5.0 | 0.00 | 0.00 | 0.00 | 41 | 1014.1 |
| 20260506233859 | 46 | 49 | 3.0 | 5.0 | 0.00 | 0.00 | 0.00 | 41 | 1014.2 |
| 20260506233355 | 45 | 212 | 1.0 | 6.0 | 0.00 | 0.00 | 0.00 | 39 | 1014.1 |
| 20260506232852 | 46 | 306 | 5.0 | 8.0 | 0.00 | 0.00 | 0.00 | 40 | 1014.2 |
| 20260506232348 | 46 | 7 | 2.0 | 6.0 | 0.00 | 0.00 | 0.00 | 39 | 1014.1 |
| 20260506231844 | 46 | 352 | 4.0 | 6.0 | 0.00 | 0.00 | 0.00 | 38 | 1014.2 |
| 20260506231342 | 46 | 353 | 2.0 | 7.0 | 0.00 | 0.00 | 0.00 | 39 | 1014.2 |
| 20260506230839 | 45 | 351 | 3.0 | 8.0 | 0.00 | 0.00 | 0.00 | 39 | 1014.2 |
| 20260506230336 | 46 | 306 | 3.0 | 8.0 | 0.00 | 0.00 | 0.00 | 39 | 1014.2 |
| 20260506225832 | 46 | 293 | 3.0 | 7.0 | 0.00 | 0.00 | 0.00 | 39 | 1014.3 |